"SCET";"TARGET";"ELECTRON_DENSITY";"ERROR_FLAG";"ELECTRON_DENSITY_ERROR";"FREQ_FCE";"MEASURED_VALUE";"MEASURED_ITEM";"FREQ_PLASMA";"FREQ_UPPER_HYBRID";"FREQ_R_EQUALS_ZERO";"FREQ_L_EQUALS_ZERO";"ORBIT_NUMBER";"SATURN_RADIUS";"SATURN_IAU_LONGITUDE";"SATURN_SLS4_S_LONGITUDE";"SATURN_SLS4_N_LONGITUDE";"SATURN_SLS5_S_LONGITUDE";"SATURN_SLS5_N_LONGITUDE";"SATURN_LOCAL_TIME";"SATURN_KRONOGRAPHIC_LATITUDE";"SATURN_MAGNETIC_LATITUDE";"SATURN_L";"SATURN_L_OFFSET";"SATURN_SOLAR_EQUATORIAL_X";"SATURN_SOLAR_EQUATORIAL_Y";"SATURN_SOLAR_EQUATORIAL_Z";"SATURN_ALTITUDE";"ENCELADUS_ENCOUNTER_NUMBER";"ENCELADUS_RADIUS";"ENCELADUS_COROTATIONAL_X";"ENCELADUS_COROTATIONAL_Y";"ENCELADUS_COROTATIONAL_Z";"ENCELADUS_TRUE_ANOMALY";"ENCELADUS_PERIAPSIS_TIME";"JUPITER_RADIUS";"JUPITER_SYSTEMIII_LONGITUDE";"JUPITER_MAGNETIC_LATITUDE";"JUPITER_MAGNETIC_LOCAL_TIME";"JUPITER_L";"IO_PHASE";"EARTH_RADIUS";"EARTH_MAGNETIC_LATITUDE";"EARTH_LOCAL_TIME";"EARTH_L"
"[UTC]";"[0=Saturn, 1=Enceladus, 2=Jupiter, 3=Earth]";"[cm-3]";"[0=automated, 1=manual]";"[normalized density error]";"[Hz]";"[Hz]";"[0=upper hybrid frequency, 1=plasma frequency cutoff]";"[Hz]";"[Hz]";"[Hz]";"[Hz}";"[0, A, B, C, 3, 4, ... , 292, 293]";"[Rs where 1Rs=60268km]";"[degrees]";"[degrees]";"[degrees]";"[degrees]";"[degrees]";"[hours]";"[degrees]";"[degrees where offset=2293km north]";"[Rs where 1Rs=60268km]";"[Rs where 1Rs=60268km and offset=2293km north]";"[Rs where 1Rs=60268km]";"[Rs where 1Rs=60268km]";"[Rs where 1Rs=60268km]";"[km where ellipsoid a,b=60268km and c=54364km]";"[E0, E1, E2, ... , E21, E22]";"[Renc where 1Renc=252.1km]";"[Renc where 1Renc=252.1km]";"[Renc where 1Renc=252.1km]";"[Renc where 1Renc=252.1km]";"[degrees]";"[UTC]";"[Rj where 1Rj=71492km]";"[degrees]";"[degrees using JRM09 model]";"[hours using JRM09 model]";"[Rj where 1Rj=71492km]";"[degrees]";"[Re where 1Re=6378.1366km]";"[degrees]";"[hours]";"[Re where 1Re=6378.1366km]"
2016-01-30T00:00:15.360Z;0;3.9420e+01;0;     0.082;  4612.860;  56569.188; 0;  56380.801;  56569.188;  58734.387;  54121.523;231;   4.879; 125.601;;;  20.161; 295.060;  12.193;   2.836;   2.390;   4.891;   4.872;   4.867;   0.247;   0.241;;;;;;;;;;;;;;;;;;
2016-01-30T00:00:31.360Z;0;3.9450e+01;0;     0.080;  4612.860;  56590.828; 0;  56402.512;  56590.828;  58756.078;  54143.219;231;   4.877; 125.711;;;  20.272; 295.169;  12.196;   2.834;   2.388;   4.889;   4.870;   4.864;   0.250;   0.241;;;;;;;;;;;;;;;;;;
2016-01-30T00:00:47.360Z;0;3.9450e+01;0;     0.078;  4612.860;  56588.348; 0;  56400.023;  56588.348;  58753.594;  54140.734;231;   4.875; 125.820;;;  20.382; 295.278;  12.199;   2.832;   2.385;   4.887;   4.868;   4.862;   0.253;   0.241;;;;;;;;;;;;;;;;;;
2016-01-30T00:01:03.360Z;0;3.9470e+01;0;     0.074;  4630.640;  56603.695; 0;  56413.965;  56603.695;  58776.777;  54146.137;231;   4.873; 125.930;;;  20.492; 295.386;  12.201;   2.829;   2.383;   4.885;   4.866;   4.860;   0.257;   0.241;;;;;;;;;;;;;;;;;;
2016-01-30T00:01:19.360Z;0;3.9410e+01;0;     0.076;  4630.640;  56567.219; 0;  56377.367;  56567.219;  58740.211;  54109.570;231;   4.871; 126.039;;;  20.603; 295.495;  12.204;   2.827;   2.380;   4.883;   4.864;   4.858;   0.260;   0.240;;;;;;;;;;;;;;;;;;
2016-01-30T00:01:35.360Z;0;3.9430e+01;0;     0.079;  4630.640;  56578.285; 0;  56388.469;  56578.285;  58751.305;  54120.664;231;   4.869; 126.149;;;  20.713; 295.604;  12.207;   2.825;   2.378;   4.881;   4.862;   4.856;   0.263;   0.240;;;;;;;;;;;;;;;;;;
2016-01-30T00:01:51.359Z;0;3.9530e+01;0;     0.077;  4630.640;  56648.574; 0;  56458.996;  56648.574;  58821.770;  54191.129;231;   4.867; 126.258;;;  20.823; 295.712;  12.209;   2.823;   2.375;   4.879;   4.860;   4.853;   0.267;   0.240;;;;;;;;;;;;;;;;;;
2016-01-30T00:02:07.359Z;0;3.9590e+01;0;     0.079;  4654.188;  56696.160; 0;  56504.805;  56696.160;  58879.801;  54225.613;231;   4.865; 126.368;;;  20.934; 295.821;  12.212;   2.820;   2.373;   4.876;   4.858;   4.851;   0.270;   0.239;;;;;;;;;;;;;;;;;;
2016-01-30T00:02:23.359Z;0;3.9470e+01;0;     0.075;  4654.188;  56606.262; 0;  56414.602;  56606.262;  58789.672;  54135.484;231;   4.863; 126.477;;;  21.044; 295.929;  12.215;   2.818;   2.370;   4.874;   4.856;   4.849;   0.273;   0.239;;;;;;;;;;;;;;;;;;
2016-01-30T00:02:39.359Z;0;3.9580e+01;0;     0.078;  4654.188;  56687.531; 0;  56496.148;  56687.531;  58871.148;  54216.961;231;   4.861; 126.586;;;  21.155; 296.038;  12.218;   2.816;   2.368;   4.872;   4.854;   4.847;   0.277;   0.239;;;;;;;;;;;;;;;;;;
2016-01-30T00:02:55.359Z;0;3.9720e+01;0;     0.082;  4654.188;  56786.719; 0;  56595.672;  56786.719;  58970.586;  54316.398;231;   4.859; 126.695;;;  21.265; 296.146;  12.220;   2.813;   2.365;   4.870;   4.852;   4.845;   0.280;   0.238;;;;;;;;;;;;;;;;;;
2016-01-30T00:03:11.359Z;0;3.9520e+01;0;     0.076;  4677.848;  56642.992; 0;  56449.504;  56642.992;  58836.859;  54159.012;231;   4.857; 126.805;;;  21.376; 296.255;  12.223;   2.811;   2.363;   4.868;   4.850;   4.843;   0.283;   0.238;;;;;;;;;;;;;;;;;;
2016-01-30T00:03:27.359Z;0;3.9620e+01;0;     0.078;  4677.848;  56715.133; 0;  56521.891;  56715.133;  58909.188;  54231.340;231;   4.855; 126.914;;;  21.486; 296.363;  12.226;   2.809;   2.360;   4.866;   4.848;   4.840;   0.287;   0.238;;;;;;;;;;;;;;;;;;
2016-01-30T00:03:43.359Z;0;3.9760e+01;0;     0.079;  4677.848;  56816.668; 0;  56623.773;  56816.668;  59010.980;  54333.133;231;   4.853; 127.023;;;  21.597; 296.472;  12.229;   2.806;   2.358;   4.864;   4.846;   4.838;   0.290;   0.238;;;;;;;;;;;;;;;;;;
2016-01-30T00:03:59.359Z;0;3.9960e+01;0;     0.085;  4677.848;  56956.484; 0;  56764.062;  56956.484;  59151.152;  54473.305;231;   4.851; 127.132;;;  21.708; 296.580;  12.231;   2.804;   2.355;   4.862;   4.844;   4.836;   0.293;   0.237;;;;;;;;;;;;;;;;;;
2016-01-30T00:04:15.358Z;0;4.0150e+01;0;     0.090;  4701.368;  57096.609; 0;  56902.723;  57096.609;  59301.941;  54600.574;231;   4.849; 127.241;;;  21.819; 296.688;  12.234;   2.802;   2.353;   4.860;   4.842;   4.834;   0.297;   0.237;;;;;;;;;;;;;;;;;;
2016-01-30T00:04:31.358Z;0;3.9820e+01;0;     0.085;  4701.368;  56860.973; 0;  56666.281;  56860.973;  59065.699;  54364.332;231;   4.847; 127.350;;;  21.929; 296.797;  12.237;   2.799;   2.350;   4.858;   4.840;   4.832;   0.300;   0.237;;;;;;;;;;;;;;;;;;
2016-01-30T00:04:47.358Z;0;3.9920e+01;0;     0.084;  4701.368;  56933.512; 0;  56739.070;  56933.512;  59138.426;  54437.059;231;   4.845; 127.459;;;  22.040; 296.905;  12.240;   2.797;   2.347;   4.856;   4.838;   4.829;   0.303;   0.236;;;;;;;;;;;;;;;;;;
2016-01-30T00:05:03.358Z;0;3.9990e+01;0;     0.088;  4725.140;  56983.797; 0;  56787.555;  56983.797;  59199.246;  54474.105;231;   4.843; 127.568;;;  22.151; 297.013;  12.242;   2.795;   2.345;   4.854;   4.836;   4.827;   0.307;   0.236;;;;;;;;;;;;;;;;;;
2016-01-30T00:05:35.358Z;0;3.9830e+01;0;     0.080;  4725.140;  56868.434; 0;  56671.789;  56868.434;  59083.586;  54358.445;231;   4.839; 127.786;;;  22.373; 297.229;  12.248;   2.790;   2.340;   4.850;   4.832;   4.823;   0.313;   0.236;;;;;;;;;;;;;;;;;;
2016-01-30T00:05:51.358Z;0;4.0040e+01;0;     0.085;  4725.140;  57017.953; 0;  56821.828;  57017.953;  59233.492;  54508.352;231;   4.837; 127.895;;;  22.484; 297.337;  12.250;   2.788;   2.337;   4.848;   4.830;   4.821;   0.317;   0.235;;;;;;;;;;;;;;;;;;
2016-01-30T00:06:07.358Z;0;3.9950e+01;0;     0.078;  4749.192;  56954.500; 0;  56756.148;  56954.500;  59180.395;  54431.203;231;   4.835; 128.004;;;  22.595; 297.445;  12.253;   2.785;   2.335;   4.846;   4.828;   4.818;   0.320;   0.235;;;;;;;;;;;;;;;;;;
2016-01-30T00:06:23.358Z;0;4.0050e+01;0;     0.087;  4749.192;  57025.512; 0;  56827.406;  57025.512;  59251.594;  54502.402;231;   4.833; 128.113;;;  22.706; 297.554;  12.256;   2.783;   2.332;   4.844;   4.826;   4.816;   0.323;   0.235;;;;;;;;;;;;;;;;;;
2016-01-30T00:06:39.358Z;0;4.0080e+01;0;     0.081;  4749.192;  57048.926; 0;  56850.902;  57048.926;  59275.070;  54525.875;231;   4.831; 128.221;;;  22.817; 297.662;  12.259;   2.780;   2.330;   4.842;   4.824;   4.814;   0.327;   0.234;;;;;;;;;;;;;;;;;;
2016-01-30T00:06:55.357Z;0;4.0220e+01;0;     0.088;  4749.192;  57150.703; 0;  56953.035;  57150.703;  59377.109;  54627.918;231;   4.829; 128.330;;;  22.928; 297.770;  12.262;   2.778;   2.327;   4.840;   4.822;   4.812;   0.330;   0.234;;;;;;;;;;;;;;;;;;
2016-01-30T00:07:11.357Z;0;4.0120e+01;0;     0.081;  4773.496;  57082.918; 0;  56882.980;  57082.918;  59319.777;  54546.281;231;   4.827; 128.439;;;  23.039; 297.877;  12.264;   2.776;   2.325;   4.838;   4.820;   4.809;   0.334;   0.234;;;;;;;;;;;;;;;;;;
2016-01-30T00:07:27.357Z;0;4.0100e+01;0;     0.079;  4773.496;  57065.184; 0;  56865.184;  57065.184;  59301.996;  54528.500;231;   4.825; 128.548;;;  23.150; 297.985;  12.267;   2.773;   2.322;   4.836;   4.818;   4.807;   0.337;   0.233;;;;;;;;;;;;;;;;;;
2016-01-30T00:07:43.357Z;0;4.0090e+01;0;     0.087;  4773.496;  57061.848; 0;  56861.836;  57061.848;  59298.652;  54525.156;231;   4.823; 128.656;;;  23.262; 298.093;  12.270;   2.771;   2.319;   4.834;   4.816;   4.805;   0.340;   0.233;;;;;;;;;;;;;;;;;;
2016-01-30T00:07:59.357Z;0;3.9790e+01;0;     0.087;  4773.496;  56849.324; 0;  56648.559;  56849.324;  59085.566;  54312.070;231;   4.821; 128.765;;;  23.373; 298.201;  12.273;   2.769;   2.317;   4.832;   4.814;   4.803;   0.344;   0.233;;;;;;;;;;;;;;;;;;
2016-01-30T00:08:15.357Z;0;3.9350e+01;0;     0.072;  4799.788;  56538.730; 0;  56334.625;  56538.730;  58785.617;  53985.828;231;   4.819; 128.873;;;  23.484; 298.309;  12.275;   2.766;   2.314;   4.830;   4.812;   4.801;   0.347;   0.233;;;;;;;;;;;;;;;;;;
2016-01-30T00:08:31.357Z;0;3.9330e+01;0;     0.077;  4799.788;  56518.348; 0;  56314.168;  56518.348;  58765.176;  53965.391;231;   4.817; 128.982;;;  23.596; 298.417;  12.278;   2.764;   2.312;   4.828;   4.810;   4.798;   0.350;   0.232;;;;;;;;;;;;;;;;;;
2016-01-30T00:08:47.357Z;0;3.9430e+01;0;     0.080;  4799.788;  56590.320; 0;  56386.402;  56590.320;  58837.344;  54037.559;231;   4.815; 129.090;;;  23.707; 298.524;  12.281;   2.761;   2.309;   4.826;   4.808;   4.796;   0.354;   0.232;;;;;;;;;;;;;;;;;;
2016-01-30T00:09:03.357Z;0;3.9270e+01;0;     0.079;  4825.772;  56477.371; 0;  56270.820;  56477.371;  58735.418;  53909.645;231;   4.813; 129.199;;;  23.818; 298.632;  12.284;   2.759;   2.307;   4.824;   4.806;   4.794;   0.357;   0.232;;;;;;;;;;;;;;;;;;
2016-01-30T00:09:19.357Z;0;3.9330e+01;0;     0.075;  4825.772;  56520.027; 0;  56313.633;  56520.027;  58778.188;  53952.418;231;   4.811; 129.307;;;  23.930; 298.740;  12.286;   2.757;   2.304;   4.822;   4.804;   4.792;   0.360;   0.231;;;;;;;;;;;;;;;;;;
2016-01-30T00:09:35.356Z;0;3.9410e+01;0;     0.077;  4825.772;  56581.109; 0;  56374.941;  56581.109;  58839.438;  54013.668;231;   4.809; 129.416;;;  24.041; 298.847;  12.289;   2.754;   2.301;   4.820;   4.802;   4.789;   0.364;   0.231;;;;;;;;;;;;;;;;;;
2016-01-30T00:09:51.356Z;0;3.9530e+01;0;     0.077;  4825.772;  56668.336; 0;  56462.484;  56668.336;  58926.902;  54101.133;231;   4.807; 129.524;;;  24.153; 298.955;  12.292;   2.752;   2.299;   4.818;   4.800;   4.787;   0.367;   0.231;;;;;;;;;;;;;;;;;;
2016-01-30T00:10:07.356Z;0;3.9490e+01;0;     0.078;  4850.524;  56642.301; 0;  56434.234;  56642.301;  58911.582;  54061.059;231;   4.805; 129.632;;;  24.263; 299.062;  12.295;   2.749;   2.296;   4.816;   4.798;   4.785;   0.370;   0.230;;;;;;;;;;;;;;;;;;
2016-01-30T00:10:23.356Z;0;3.9640e+01;0;     0.078;  4850.524;  56745.734; 0;  56538.047;  56745.734;  59015.301;  54164.777;231;   4.803; 129.741;;;  24.372; 299.168;  12.298;   2.747;   2.294;   4.814;   4.796;   4.783;   0.374;   0.230;;;;;;;;;;;;;;;;;;
2016-01-30T00:10:39.356Z;0;3.9560e+01;0;     0.079;  4850.524;  56685.633; 0;  56477.727;  56685.633;  58955.035;  54104.512;231;   4.801; 129.849;;;  24.481; 299.274;  12.300;   2.745;   2.291;   4.812;   4.794;   4.780;   0.377;   0.230;;;;;;;;;;;;;;;;;;
2016-01-30T00:10:55.356Z;0;3.9760e+01;0;     0.084;  4850.524;  56829.824; 0;  56622.445;  56829.824;  59099.625;  54249.098;231;   4.799; 129.957;;;  24.589; 299.380;  12.303;   2.742;   2.288;   4.810;   4.792;   4.778;   0.380;   0.230;;;;;;;;;;;;;;;;;;
2016-01-30T00:11:11.356Z;0;3.9530e+01;0;     0.078;  4874.912;  56667.188; 0;  56457.109;  56667.188;  58947.160;  54072.246;231;   4.797; 130.065;;;  24.698; 299.486;  12.306;   2.740;   2.286;   4.808;   4.790;   4.776;   0.384;   0.229;;;;;;;;;;;;;;;;;;
2016-01-30T00:11:27.356Z;0;3.9680e+01;0;     0.086;  4874.912;  56779.355; 0;  56569.695;  56779.355;  59059.641;  54184.727;231;   4.795; 130.173;;;  24.806; 299.592;  12.309;   2.737;   2.283;   4.806;   4.788;   4.774;   0.387;   0.229;;;;;;;;;;;;;;;;;;
2016-01-30T00:11:43.356Z;0;3.9670e+01;0;     0.079;  4874.912;  56771.527; 0;  56561.840;  56771.527;  59051.789;  54176.879;231;   4.793; 130.282;;;  24.914; 299.697;  12.312;   2.735;   2.280;   4.804;   4.786;   4.771;   0.390;   0.229;;;;;;;;;;;;;;;;;;
2016-01-30T00:11:59.356Z;0;3.9540e+01;0;     0.078;  4874.912;  56678.340; 0;  56468.305;  56678.340;  58958.344;  54083.430;231;   4.791; 130.390;;;  25.023; 299.803;  12.314;   2.732;   2.278;   4.802;   4.784;   4.769;   0.394;   0.228;;;;;;;;;;;;;;;;;;
2016-01-30T00:12:15.355Z;0;3.9390e+01;0;     0.080;  4899.888;  56570.723; 0;  56358.121;  56570.723;  58861.289;  53961.402;231;   4.789; 130.498;;;  25.131; 299.908;  12.317;   2.730;   2.275;   4.800;   4.782;   4.767;   0.397;   0.228;;;;;;;;;;;;;;;;;;
2016-01-30T00:12:31.355Z;0;3.9560e+01;0;     0.086;  4899.888;  56694.371; 0;  56482.234;  56694.371;  58985.289;  54085.398;231;   4.787; 130.606;;;  25.239; 300.013;  12.320;   2.728;   2.273;   4.798;   4.780;   4.765;   0.400;   0.228;;;;;;;;;;;;;;;;;;
2016-01-30T00:12:47.355Z;0;3.9370e+01;0;     0.077;  4899.888;  56560.199; 0;  56347.559;  56560.199;  58850.738;  53950.848;231;   4.785; 130.714;;;  25.346; 300.118;  12.323;   2.725;   2.270;   4.796;   4.778;   4.762;   0.404;   0.227;;;;;;;;;;;;;;;;;;
2016-01-30T00:13:03.355Z;0;3.9040e+01;0;     0.076;  4925.424;  56321.539; 0;  56105.758;  56321.539;  58622.492;  53697.066;231;   4.783; 130.822;;;  25.454; 300.224;  12.326;   2.723;   2.267;   4.794;   4.776;   4.760;   0.407;   0.227;;;;;;;;;;;;;;;;;;
2016-01-30T00:13:19.355Z;0;3.9110e+01;0;     0.081;  4925.424;  56373.387; 0;  56157.805;  56373.387;  58674.488;  53749.066;231;   4.781; 130.930;;;  25.562; 300.329;  12.328;   2.720;   2.265;   4.792;   4.774;   4.758;   0.410;   0.227;;;;;;;;;;;;;;;;;;
2016-01-30T00:13:35.355Z;0;3.8900e+01;0;     0.079;  4925.424;  56227.230; 0;  56011.086;  56227.230;  58527.910;  53602.488;231;   4.779; 131.038;;;  25.669; 300.433;  12.331;   2.718;   2.262;   4.790;   4.772;   4.756;   0.414;   0.227;;;;;;;;;;;;;;;;;;
2016-01-30T00:13:51.355Z;0;3.8680e+01;0;     0.086;  4925.424;  56064.258; 0;  55847.480;  56064.258;  58364.465;  53439.043;231;   4.777; 131.145;;;  25.777; 300.538;  12.334;   2.715;   2.259;   4.788;   4.770;   4.753;   0.417;   0.226;;;;;;;;;;;;;;;;;;
2016-01-30T00:14:07.355Z;0;3.8130e+01;0;     0.091;  4951.576;  55674.004; 0;  55453.375;  55674.004;  57984.402;  53032.824;231;   4.775; 131.253;;;  25.884; 300.643;  12.337;   2.713;   2.257;   4.786;   4.768;   4.751;   0.420;   0.226;;;;;;;;;;;;;;;;;;
2016-01-30T00:14:23.355Z;0;3.8140e+01;0;     0.089;  4951.576;  55677.891; 0;  55457.277;  55677.891;  57988.301;  53036.723;231;   4.773; 131.361;;;  25.991; 300.747;  12.340;   2.710;   2.254;   4.784;   4.766;   4.749;   0.424;   0.226;;;;;;;;;;;;;;;;;;
2016-01-30T00:14:39.355Z;0;3.8020e+01;0;     0.101;  4951.576;  55595.496; 0;  55374.551;  55595.496;  57905.660;  52954.082;231;   4.771; 131.469;;;  26.098; 300.852;  12.343;   2.708;   2.251;   4.782;   4.764;   4.746;   0.427;   0.225;;;;;;;;;;;;;;;;;;
2016-01-30T00:14:55.354Z;0;3.6990e+01;0;     0.082;  4951.576;  54840.180; 0;  54616.180;  54840.180;  57148.055;  52196.480;231;   4.769; 131.576;;;  26.205; 300.956;  12.345;   2.705;   2.249;   4.780;   4.762;   4.744;   0.430;   0.225;;;;;;;;;;;;;;;;;;
2016-01-30T00:15:27.354Z;0;3.6980e+01;0;     0.087;  4977.700;  54836.953; 0;  54610.566;  54836.953;  57156.102;  52178.402;231;   4.765; 131.792;;;  26.419; 301.164;  12.351;   2.700;   2.243;   4.776;   4.759;   4.740;   0.437;   0.224;;;;;;;;;;;;;;;;;;
2016-01-30T00:15:43.354Z;0;3.6880e+01;0;     0.084;  4977.700;  54764.652; 0;  54537.965;  54764.652;  57083.574;  52105.875;231;   4.763; 131.899;;;  26.526; 301.268;  12.354;   2.698;   2.241;   4.774;   4.757;   4.737;   0.440;   0.224;;;;;;;;;;;;;;;;;;
2016-01-30T00:15:59.354Z;0;3.6670e+01;0;     0.081;  4977.700;  54608.867; 0;  54381.531;  54608.867;  56927.305;  51949.605;231;   4.761; 132.007;;;  26.632; 301.372;  12.357;   2.695;   2.238;   4.772;   4.755;   4.735;   0.444;   0.224;;;;;;;;;;;;;;;;;;
2016-01-30T00:16:15.354Z;0;3.6680e+01;0;     0.079;  5003.068;  54618.348; 0;  54388.723;  54618.348;  56947.754;  51944.688;231;   4.759; 132.114;;;  26.739; 301.476;  12.360;   2.693;   2.235;   4.770;   4.753;   4.733;   0.447;   0.224;;;;;;;;;;;;;;;;;;
2016-01-30T00:16:31.354Z;0;3.6870e+01;0;     0.091;  5003.068;  54756.574; 0;  54527.531;  54756.574;  57086.418;  52083.348;231;   4.757; 132.222;;;  26.845; 301.580;  12.362;   2.690;   2.233;   4.768;   4.751;   4.731;   0.450;   0.223;;;;;;;;;;;;;;;;;;
2016-01-30T00:16:47.354Z;0;3.6520e+01;0;     0.081;  5003.068;  54500.758; 0;  54270.637;  54500.758;  56829.793;  51826.723;231;   4.755; 132.329;;;  26.951; 301.683;  12.365;   2.688;   2.230;   4.766;   4.749;   4.728;   0.454;   0.223;;;;;;;;;;;;;;;;;;
2016-01-30T00:17:03.354Z;0;3.6610e+01;0;     0.080;  5028.520;  54566.359; 0;  54334.164;  54566.359;  56906.566;  51878.047;231;   4.753; 132.437;;;  27.057; 301.787;  12.368;   2.685;   2.227;   4.764;   4.747;   4.726;   0.457;   0.223;;;;;;;;;;;;;;;;;;
2016-01-30T00:17:19.353Z;0;3.6690e+01;0;     0.084;  5028.520;  54629.184; 0;  54397.258;  54629.184;  56969.594;  51941.070;231;   4.751; 132.544;;;  27.163; 301.890;  12.371;   2.683;   2.225;   4.762;   4.745;   4.724;   0.460;   0.222;;;;;;;;;;;;;;;;;;
2016-01-30T00:17:35.353Z;0;3.6870e+01;0;     0.094;  5028.520;  54758.465; 0;  54527.090;  54758.465;  57099.285;  52070.766;231;   4.749; 132.651;;;  27.269; 301.994;  12.374;   2.680;   2.222;   4.760;   4.743;   4.721;   0.464;   0.222;;;;;;;;;;;;;;;;;;
2016-01-30T00:17:51.353Z;0;3.6940e+01;0;     0.101;  5028.520;  54808.676; 0;  54577.512;  54808.676;  57149.656;  52121.137;231;   4.747; 132.759;;;  27.375; 302.097;  12.377;   2.678;   2.219;   4.758;   4.741;   4.719;   0.467;   0.222;;;;;;;;;;;;;;;;;;
2016-01-30T00:18:07.353Z;0;3.6420e+01;0;     0.097;  5055.316;  54429.668; 0;  54194.395;  54429.668;  56780.969;  51725.652;231;   4.745; 132.866;;;  27.481; 302.200;  12.380;   2.675;   2.216;   4.756;   4.739;   4.717;   0.470;   0.221;;;;;;;;;;;;;;;;;;
2016-01-30T00:18:23.353Z;0;3.5630e+01;0;     0.092;  5055.316;  53841.043; 0;  53603.188;  53841.043;  56190.406;  51135.094;231;   4.743; 132.973;;;  27.587; 302.303;  12.382;   2.673;   2.214;   4.754;   4.737;   4.714;   0.474;   0.221;;;;;;;;;;;;;;;;;;
2016-01-30T00:18:39.353Z;0;3.5260e+01;0;     0.101;  5055.316;  53561.773; 0;  53322.672;  53561.773;  55910.207;  50854.891;231;   4.741; 133.081;;;  27.692; 302.406;  12.385;   2.670;   2.211;   4.752;   4.735;   4.712;   0.477;   0.221;;;;;;;;;;;;;;;;;;
2016-01-30T00:18:55.353Z;0;3.3780e+01;0;     0.082;  5055.316;  52435.012; 0;  52190.750;  52435.012;  54779.578;  49724.262;231;   4.739; 133.188;;;  27.798; 302.508;  12.388;   2.668;   2.208;   4.750;   4.733;   4.710;   0.480;   0.221;;;;;;;;;;;;;;;;;;
2016-01-30T00:19:11.353Z;0;3.4780e+01;0;     0.100;  5083.428;  53205.055; 0;  52961.652;  53205.055;  55564.320;  50480.895;231;   4.737; 133.295;;;  27.903; 302.611;  12.391;   2.665;   2.206;   4.748;   4.731;   4.708;   0.484;   0.220;;;;;;;;;;;;;;;;;;
2016-01-30T00:19:27.353Z;0;3.3680e+01;0;     0.081;  5083.428;  52362.656; 0;  52115.320;  52362.656;  54718.977;  49635.551;231;   4.735; 133.402;;;  28.008; 302.713;  12.394;   2.663;   2.203;   4.746;   4.729;   4.705;   0.487;   0.220;;;;;;;;;;;;;;;;;;
2016-01-30T00:19:43.353Z;0;3.4430e+01;0;     0.106;  5083.428;  52934.254; 0;  52689.602;  52934.254;  55292.586;  50209.156;231;   4.733; 133.509;;;  28.113; 302.816;  12.397;   2.660;   2.200;   4.744;   4.727;   4.703;   0.490;   0.220;;;;;;;;;;;;;;;;;;
2016-01-30T00:19:59.352Z;0;3.3710e+01;0;     0.078;  5083.428;  52386.633; 0;  52139.410;  52386.633;  54743.039;  49659.613;231;   4.732; 133.616;;;  28.218; 302.918;  12.400;   2.658;   2.197;   4.742;   4.725;   4.701;   0.494;   0.219;;;;;;;;;;;;;;;;;;
2016-01-30T00:20:15.352Z;0;3.4730e+01;0;     0.093;  5109.440;  53170.781; 0;  52924.715;  53170.781;  55541.059;  50431.621;231;   4.730; 133.723;;;  28.324; 303.023;  12.402;   2.655;   2.195;   4.740;   4.723;   4.698;   0.497;   0.219;;;;;;;;;;;;;;;;;;
2016-01-30T00:20:31.352Z;0;3.4810e+01;0;     0.102;  5109.440;  53225.547; 0;  52979.738;  53225.547;  55596.016;  50486.574;231;   4.728; 133.830;;;  28.431; 303.128;  12.405;   2.653;   2.192;   4.738;   4.721;   4.696;   0.500;   0.219;;;;;;;;;;;;;;;;;;
2016-01-30T00:20:47.352Z;0;3.4960e+01;0;     0.098;  5109.440;  53345.039; 0;  53099.781;  53345.039;  55715.922;  50606.480;231;   4.726; 133.937;;;  28.537; 303.233;  12.408;   2.650;   2.189;   4.736;   4.719;   4.694;   0.504;   0.218;;;;;;;;;;;;;;;;;;
2016-01-30T00:21:03.352Z;0;3.4300e+01;0;     0.099;  5136.068;  52842.148; 0;  52591.953;  52842.148;  55222.648;  50086.578;231;   4.724; 134.044;;;  28.643; 303.338;  12.411;   2.647;   2.186;   4.734;   4.717;   4.691;   0.507;   0.218;;;;;;;;;;;;;;;;;;
2016-01-30T00:21:19.352Z;0;3.4490e+01;0;     0.101;  5136.068;  52983.660; 0;  52734.137;  52983.660;  55364.660;  50228.594;231;   4.722; 134.151;;;  28.749; 303.443;  12.414;   2.645;   2.184;   4.732;   4.715;   4.689;   0.510;   0.218;;;;;;;;;;;;;;;;;;
2016-01-30T00:21:35.352Z;0;3.3700e+01;0;     0.089;  5136.068;  52380.543; 0;  52128.133;  52380.543;  54759.383;  49623.316;231;   4.720; 134.258;;;  28.855; 303.548;  12.417;   2.642;   2.181;   4.730;   4.713;   4.687;   0.514;   0.218;;;;;;;;;;;;;;;;;;
2016-01-30T00:21:51.352Z;0;3.3610e+01;0;     0.092;  5136.068;  52310.742; 0;  52057.992;  52310.742;  54689.328;  49553.262;231;   4.718; 134.364;;;  28.961; 303.653;  12.420;   2.640;   2.178;   4.728;   4.711;   4.684;   0.517;   0.217;;;;;;;;;;;;;;;;;;
2016-01-30T00:22:07.352Z;0;3.3830e+01;0;     0.098;  5162.192;  52483.789; 0;  52229.301;  52483.789;  54874.137;  49711.941;231;   4.716; 134.471;;;  29.067; 303.759;  12.423;   2.637;   2.175;   4.726;   4.709;   4.682;   0.520;   0.217;;;;;;;;;;;;;;;;;;
2016-01-30T00:22:23.352Z;0;3.3390e+01;0;     0.089;  5162.192;  52143.781; 0;  51887.625;  52143.781;  54532.879;  49370.688;231;   4.714; 134.578;;;  29.173; 303.864;  12.426;   2.635;   2.173;   4.724;   4.707;   4.680;   0.524;   0.217;;;;;;;;;;;;;;;;;;
2016-01-30T00:22:39.351Z;0;3.3020e+01;0;     0.080;  5162.192;  51861.004; 0;  51603.445;  51861.004;  54249.051;  49086.859;231;   4.712; 134.684;;;  29.279; 303.969;  12.428;   2.632;   2.170;   4.722;   4.705;   4.677;   0.527;   0.216;;;;;;;;;;;;;;;;;;
2016-01-30T00:22:55.351Z;0;3.2980e+01;0;     0.079;  5162.192;  51824.398; 0;  51566.656;  51824.398;  54212.309;  49050.117;231;   4.710; 134.791;;;  29.385; 304.074;  12.431;   2.629;   2.167;   4.720;   4.704;   4.675;   0.530;   0.216;;;;;;;;;;;;;;;;;;
2016-01-30T00:23:11.351Z;0;3.3070e+01;0;     0.082;  5189.212;  51904.465; 0;  51644.414;  51904.465;  54304.156;  49114.945;231;   4.708; 134.898;;;  29.490; 304.180;  12.434;   2.627;   2.164;   4.718;   4.702;   4.673;   0.534;   0.216;;;;;;;;;;;;;;;;;;